Year,Month,Day,Hour,Minute,Value (Times are PST for insolation in W/m^2)
2009,10,02,00,00,0.00
2009,10,02,00,01,0.00
2009,10,02,00,02,0.00
2009,10,02,00,03,0.00
2009,10,02,00,04,0.00
2009,10,02,00,05,0.00
2009,10,02,00,06,0.00
2009,10,02,00,07,0.00
2009,10,02,00,08,0.00
2009,10,02,00,09,0.00
2009,10,02,00,10,0.00
2009,10,02,00,11,0.00
2009,10,02,00,12,0.00
2009,10,02,00,13,0.00
2009,10,02,00,14,0.00
2009,10,02,00,15,0.00
2009,10,02,00,16,0.00
2009,10,02,00,17,0.00
2009,10,02,00,18,0.00
2009,10,02,00,19,0.00
2009,10,02,00,20,0.00
2009,10,02,00,21,0.00
2009,10,02,00,22,0.00
2009,10,02,00,23,0.00
2009,10,02,00,24,0.00
2009,10,02,00,25,0.00
2009,10,02,00,26,0.00
2009,10,02,00,27,0.00
2009,10,02,00,28,0.00
2009,10,02,00,29,0.00
2009,10,02,00,30,0.00
2009,10,02,00,31,0.00
2009,10,02,00,32,0.00
2009,10,02,00,33,0.00
2009,10,02,00,34,0.00
2009,10,02,00,35,0.00
2009,10,02,00,36,0.00
2009,10,02,00,37,0.00
2009,10,02,00,38,0.00
2009,10,02,00,39,0.00
2009,10,02,00,40,0.00
2009,10,02,00,41,0.00
2009,10,02,00,42,0.00
2009,10,02,00,43,0.00
2009,10,02,00,44,0.00
2009,10,02,00,45,0.00
2009,10,02,00,46,0.00
2009,10,02,00,47,0.00
2009,10,02,00,48,0.00
2009,10,02,00,49,0.00
2009,10,02,00,50,0.00
2009,10,02,00,51,0.00
2009,10,02,00,52,0.00
2009,10,02,00,53,0.00
2009,10,02,00,54,0.00
2009,10,02,00,55,0.00
2009,10,02,00,56,0.00
2009,10,02,00,57,0.00
2009,10,02,00,58,0.00
2009,10,02,00,59,0.00
2009,10,02,01,00,0.00
2009,10,02,01,01,0.00
2009,10,02,01,02,0.00
2009,10,02,01,03,0.00
2009,10,02,01,04,0.00
2009,10,02,01,05,0.00
2009,10,02,01,06,0.00
2009,10,02,01,07,0.00
2009,10,02,01,08,0.00
2009,10,02,01,09,0.00
2009,10,02,01,10,0.00
2009,10,02,01,11,0.00
2009,10,02,01,12,0.00
2009,10,02,01,13,0.00
2009,10,02,01,14,0.00
2009,10,02,01,15,0.00
2009,10,02,01,16,0.00
2009,10,02,01,17,0.00
2009,10,02,01,18,0.00
2009,10,02,01,19,0.00
2009,10,02,01,20,0.00
2009,10,02,01,21,0.00
2009,10,02,01,22,0.00
2009,10,02,01,23,0.00
2009,10,02,01,24,0.00
2009,10,02,01,25,0.00
2009,10,02,01,26,0.00
2009,10,02,01,27,0.00
2009,10,02,01,28,0.00
2009,10,02,01,29,0.00
2009,10,02,01,30,0.00
2009,10,02,01,31,0.00
2009,10,02,01,32,0.00
2009,10,02,01,33,0.00
2009,10,02,01,34,0.00
2009,10,02,01,35,0.00
2009,10,02,01,36,0.00
2009,10,02,01,37,0.00
2009,10,02,01,38,0.00
2009,10,02,01,39,0.00
2009,10,02,01,40,0.00
2009,10,02,01,41,0.00
2009,10,02,01,42,0.00
2009,10,02,01,43,0.00
2009,10,02,01,44,0.00
2009,10,02,01,45,0.00
2009,10,02,01,46,0.00
2009,10,02,01,47,0.00
2009,10,02,01,48,0.00
2009,10,02,01,49,0.00
2009,10,02,01,50,0.00
2009,10,02,01,51,0.00
2009,10,02,01,52,0.00
2009,10,02,01,53,0.00
2009,10,02,01,54,0.00
2009,10,02,01,55,0.00
2009,10,02,01,56,0.00
2009,10,02,01,57,0.00
2009,10,02,01,58,0.00
2009,10,02,01,59,0.00
2009,10,02,02,00,0.00
2009,10,02,02,01,0.00
2009,10,02,02,02,0.00
2009,10,02,02,03,0.00
2009,10,02,02,04,0.00
2009,10,02,02,05,0.00
2009,10,02,02,06,0.00
2009,10,02,02,07,0.00
2009,10,02,02,08,0.00
2009,10,02,02,09,0.00
2009,10,02,02,10,0.00
2009,10,02,02,11,0.00
2009,10,02,02,12,0.00
2009,10,02,02,13,0.00
2009,10,02,02,14,0.00
2009,10,02,02,15,0.00
2009,10,02,02,16,0.00
2009,10,02,02,17,0.00
2009,10,02,02,18,0.00
2009,10,02,02,19,0.00
2009,10,02,02,20,0.00
2009,10,02,02,21,0.00
2009,10,02,02,22,0.00
2009,10,02,02,23,0.00
2009,10,02,02,24,0.00
2009,10,02,02,25,0.00
2009,10,02,02,26,0.00
2009,10,02,02,27,0.00
2009,10,02,02,28,0.00
2009,10,02,02,29,0.00
2009,10,02,02,30,0.00
2009,10,02,02,31,0.00
2009,10,02,02,32,0.00
2009,10,02,02,33,0.00
2009,10,02,02,34,0.00
2009,10,02,02,35,0.00
2009,10,02,02,36,0.00
2009,10,02,02,37,0.00
2009,10,02,02,38,0.00
2009,10,02,02,39,0.00
2009,10,02,02,40,0.00
2009,10,02,02,41,0.00
2009,10,02,02,42,0.00
2009,10,02,02,43,0.00
2009,10,02,02,44,0.00
2009,10,02,02,45,0.00
2009,10,02,02,46,0.00
2009,10,02,02,47,0.00
2009,10,02,02,48,0.00
2009,10,02,02,49,0.00
2009,10,02,02,50,0.00
2009,10,02,02,51,0.00
2009,10,02,02,52,0.00
2009,10,02,02,53,0.00
2009,10,02,02,54,0.00
2009,10,02,02,55,0.00
2009,10,02,02,56,0.00
2009,10,02,02,57,0.00
2009,10,02,02,58,0.00
2009,10,02,02,59,0.00
2009,10,02,03,00,0.00
2009,10,02,03,01,0.00
2009,10,02,03,02,0.00
2009,10,02,03,03,0.00
2009,10,02,03,04,0.00
2009,10,02,03,05,0.00
2009,10,02,03,06,0.00
2009,10,02,03,07,0.00
2009,10,02,03,08,0.00
2009,10,02,03,09,0.00
2009,10,02,03,10,0.00
2009,10,02,03,11,0.00
2009,10,02,03,12,0.00
2009,10,02,03,13,0.00
2009,10,02,03,14,0.00
2009,10,02,03,15,0.00
2009,10,02,03,16,0.00
2009,10,02,03,17,0.00
2009,10,02,03,18,0.00
2009,10,02,03,19,0.00
2009,10,02,03,20,0.00
2009,10,02,03,21,0.00
2009,10,02,03,22,0.00
2009,10,02,03,23,0.00
2009,10,02,03,24,0.00
2009,10,02,03,25,0.00
2009,10,02,03,26,0.00
2009,10,02,03,27,0.00
2009,10,02,03,28,0.00
2009,10,02,03,29,0.00
2009,10,02,03,30,0.00
2009,10,02,03,31,0.00
2009,10,02,03,32,0.00
2009,10,02,03,33,0.00
2009,10,02,03,34,0.00
2009,10,02,03,35,0.00
2009,10,02,03,36,0.00
2009,10,02,03,37,0.00
2009,10,02,03,38,0.00
2009,10,02,03,39,0.00
2009,10,02,03,40,0.00
2009,10,02,03,41,0.00
2009,10,02,03,42,0.00
2009,10,02,03,43,0.00
2009,10,02,03,44,0.00
2009,10,02,03,45,0.00
2009,10,02,03,46,0.00
2009,10,02,03,47,0.00
2009,10,02,03,48,0.00
2009,10,02,03,49,0.00
2009,10,02,03,50,0.00
2009,10,02,03,51,0.00
2009,10,02,03,52,0.00
2009,10,02,03,53,0.00
2009,10,02,03,54,0.00
2009,10,02,03,55,0.00
2009,10,02,03,56,0.00
2009,10,02,03,57,0.00
2009,10,02,03,58,0.00
2009,10,02,03,59,0.00
2009,10,02,04,00,0.00
2009,10,02,04,01,0.00
2009,10,02,04,02,0.00
2009,10,02,04,03,0.00
2009,10,02,04,04,0.00
2009,10,02,04,05,0.00
2009,10,02,04,06,0.00
2009,10,02,04,07,0.00
2009,10,02,04,08,0.00
2009,10,02,04,09,0.00
2009,10,02,04,10,0.00
2009,10,02,04,11,0.00
2009,10,02,04,12,0.00
2009,10,02,04,13,0.00
2009,10,02,04,14,0.00
2009,10,02,04,15,0.00
2009,10,02,04,16,0.00
2009,10,02,04,17,0.00
2009,10,02,04,18,0.00
2009,10,02,04,19,0.00
2009,10,02,04,20,0.00
2009,10,02,04,21,0.00
2009,10,02,04,22,0.00
2009,10,02,04,23,0.00
2009,10,02,04,24,0.00
2009,10,02,04,25,0.00
2009,10,02,04,26,0.00
2009,10,02,04,27,0.00
2009,10,02,04,28,0.00
2009,10,02,04,29,0.00
2009,10,02,04,30,0.00
2009,10,02,04,31,0.00
2009,10,02,04,32,0.00
2009,10,02,04,33,0.00
2009,10,02,04,34,0.00
2009,10,02,04,35,0.00
2009,10,02,04,36,0.00
2009,10,02,04,37,0.00
2009,10,02,04,38,0.00
2009,10,02,04,39,0.00
2009,10,02,04,40,0.00
2009,10,02,04,41,0.00
2009,10,02,04,42,0.00
2009,10,02,04,43,0.00
2009,10,02,04,44,0.00
2009,10,02,04,45,0.00
2009,10,02,04,46,0.00
2009,10,02,04,47,0.00
2009,10,02,04,48,0.00
2009,10,02,04,49,0.00
2009,10,02,04,50,0.00
2009,10,02,04,51,0.00
2009,10,02,04,52,0.00
2009,10,02,04,53,0.00
2009,10,02,04,54,0.00
2009,10,02,04,55,0.00
2009,10,02,04,56,0.00
2009,10,02,04,57,0.00
2009,10,02,04,58,0.00
2009,10,02,04,59,0.00
2009,10,02,05,00,0.00
2009,10,02,05,01,0.00
2009,10,02,05,02,0.00
2009,10,02,05,03,0.00
2009,10,02,05,04,0.00
2009,10,02,05,05,0.00
2009,10,02,05,06,0.00
2009,10,02,05,07,0.00
2009,10,02,05,08,0.00
2009,10,02,05,09,0.00
2009,10,02,05,10,0.00
2009,10,02,05,11,0.00
2009,10,02,05,12,0.00
2009,10,02,05,13,0.00
2009,10,02,05,14,0.00
2009,10,02,05,15,0.00
2009,10,02,05,16,0.00
2009,10,02,05,17,0.00
2009,10,02,05,18,0.00
2009,10,02,05,19,0.00
2009,10,02,05,20,0.00
2009,10,02,05,21,0.00
2009,10,02,05,22,0.00
2009,10,02,05,23,0.00
2009,10,02,05,24,0.00
2009,10,02,05,25,0.00
2009,10,02,05,26,0.00
2009,10,02,05,27,0.00
2009,10,02,05,28,0.00
2009,10,02,05,29,0.00
2009,10,02,05,30,0.00
2009,10,02,05,31,0.00
2009,10,02,05,32,0.00
2009,10,02,05,33,0.00
2009,10,02,05,34,0.00
2009,10,02,05,35,0.00
2009,10,02,05,36,0.00
2009,10,02,05,37,0.00
2009,10,02,05,38,0.00
2009,10,02,05,39,0.00
2009,10,02,05,40,0.00
2009,10,02,05,41,0.00
2009,10,02,05,42,0.00
2009,10,02,05,43,0.00
2009,10,02,05,44,0.00
2009,10,02,05,45,0.00
2009,10,02,05,46,0.00
2009,10,02,05,47,0.00
2009,10,02,05,48,0.00
2009,10,02,05,49,0.00
2009,10,02,05,50,0.00
2009,10,02,05,51,0.00
2009,10,02,05,52,0.00
2009,10,02,05,53,0.00
2009,10,02,05,54,0.00
2009,10,02,05,55,0.00
2009,10,02,05,56,0.00
2009,10,02,05,57,0.00
2009,10,02,05,58,0.00
2009,10,02,05,59,0.00
2009,10,02,06,00,0.00
2009,10,02,06,01,0.00
2009,10,02,06,02,0.00
2009,10,02,06,03,0.00
2009,10,02,06,04,0.00
2009,10,02,06,05,0.00
2009,10,02,06,06,0.00
2009,10,02,06,07,0.00
2009,10,02,06,08,0.00
2009,10,02,06,09,0.00
2009,10,02,06,10,0.00
2009,10,02,06,11,0.00
2009,10,02,06,12,0.00
2009,10,02,06,13,0.00
2009,10,02,06,14,0.00
2009,10,02,06,15,0.00
2009,10,02,06,16,0.00
2009,10,02,06,17,0.00
2009,10,02,06,18,0.00
2009,10,02,06,19,0.00
2009,10,02,06,20,0.00
2009,10,02,06,21,0.00
2009,10,02,06,22,0.00
2009,10,02,06,23,0.00
2009,10,02,06,24,0.00
2009,10,02,06,25,0.00
2009,10,02,06,26,0.00
2009,10,02,06,27,0.00
2009,10,02,06,28,0.00
2009,10,02,06,29,0.00
2009,10,02,06,30,0.00
2009,10,02,06,31,0.00
2009,10,02,06,32,0.00
2009,10,02,06,33,0.00
2009,10,02,06,34,0.00
2009,10,02,06,35,0.00
2009,10,02,06,36,0.00
2009,10,02,06,37,0.00
2009,10,02,06,38,0.00
2009,10,02,06,39,0.00
2009,10,02,06,40,0.00
2009,10,02,06,41,0.00
2009,10,02,06,42,0.00
2009,10,02,06,43,0.00
2009,10,02,06,44,0.00
2009,10,02,06,45,0.00
2009,10,02,06,46,0.00
2009,10,02,06,47,0.00
2009,10,02,06,48,0.00
2009,10,02,06,49,0.00
2009,10,02,06,50,0.00
2009,10,02,06,51,0.00
2009,10,02,06,52,0.00
2009,10,02,06,53,0.00
2009,10,02,06,54,0.00
2009,10,02,06,55,0.00
2009,10,02,06,56,0.00
2009,10,02,06,57,0.00
2009,10,02,06,58,0.00
2009,10,02,06,59,0.00
2009,10,02,07,00,0.00
2009,10,02,07,01,0.00
2009,10,02,07,02,0.00
2009,10,02,07,03,0.00
2009,10,02,07,04,0.00
2009,10,02,07,05,0.00
2009,10,02,07,06,0.00
2009,10,02,07,07,0.00
2009,10,02,07,08,0.00
2009,10,02,07,09,0.00
2009,10,02,07,10,0.00
2009,10,02,07,11,0.00
2009,10,02,07,12,0.00
2009,10,02,07,13,0.00
2009,10,02,07,14,0.00
2009,10,02,07,15,0.00
2009,10,02,07,16,0.00
2009,10,02,07,17,0.00
2009,10,02,07,18,0.00
2009,10,02,07,19,0.00
2009,10,02,07,20,0.00
2009,10,02,07,21,0.00
2009,10,02,07,22,0.00
2009,10,02,07,23,0.00
2009,10,02,07,24,0.00
2009,10,02,07,25,0.00
2009,10,02,07,26,3.40
2009,10,02,07,27,5.00
2009,10,02,07,28,5.00
2009,10,02,07,29,5.00
2009,10,02,07,30,5.00
2009,10,02,07,31,6.10
2009,10,02,07,32,7.00
2009,10,02,07,33,7.00
2009,10,02,07,34,7.00
2009,10,02,07,35,7.00
2009,10,02,07,36,7.80
2009,10,02,07,37,9.00
2009,10,02,07,38,9.00
2009,10,02,07,39,9.00
2009,10,02,07,40,9.20
2009,10,02,07,41,11.00
2009,10,02,07,42,11.00
2009,10,02,07,43,11.00
2009,10,02,07,44,11.00
2009,10,02,07,45,11.00
2009,10,02,07,46,11.00
2009,10,02,07,47,11.00
2009,10,02,07,48,11.00
2009,10,02,07,49,11.00
2009,10,02,07,50,11.00
2009,10,02,07,51,11.00
2009,10,02,07,52,11.00
2009,10,02,07,53,11.00
2009,10,02,07,54,11.00
2009,10,02,07,55,11.00
2009,10,02,07,56,11.00
2009,10,02,07,57,11.00
2009,10,02,07,58,11.00
2009,10,02,07,59,11.00
2009,10,02,08,00,11.00
2009,10,02,08,01,11.00
2009,10,02,08,02,11.00
2009,10,02,08,03,11.90
2009,10,02,08,04,12.00
2009,10,02,08,05,12.00
2009,10,02,08,06,12.00
2009,10,02,08,07,12.00
2009,10,02,08,08,12.00
2009,10,02,08,09,12.00
2009,10,02,08,10,12.00
2009,10,02,08,11,12.00
2009,10,02,08,12,12.00
2009,10,02,08,13,12.00
2009,10,02,08,14,13.60
2009,10,02,08,15,14.00
2009,10,02,08,16,14.00
2009,10,02,08,17,14.00
2009,10,02,08,18,14.00
2009,10,02,08,19,14.00
2009,10,02,08,20,14.00
2009,10,02,08,21,14.00
2009,10,02,08,22,14.00
2009,10,02,08,23,14.00
2009,10,02,08,24,14.00
2009,10,02,08,25,14.00
2009,10,02,08,26,14.00
2009,10,02,08,27,14.00
2009,10,02,08,28,14.00
2009,10,02,08,29,14.00
2009,10,02,08,30,14.00
2009,10,02,08,31,14.00
2009,10,02,08,32,14.00
2009,10,02,08,33,14.00
2009,10,02,08,34,14.60
2009,10,02,08,35,16.00
2009,10,02,08,36,16.00
2009,10,02,08,37,16.00
2009,10,02,08,38,16.00
2009,10,02,08,39,16.00
2009,10,02,08,40,16.00
2009,10,02,08,41,16.00
2009,10,02,08,42,17.20
2009,10,02,08,43,18.00
2009,10,02,08,44,18.10
2009,10,02,08,45,19.00
2009,10,02,08,46,19.00
2009,10,02,08,47,19.00
2009,10,02,08,48,19.00
2009,10,02,08,49,20.60
2009,10,02,08,50,21.00
2009,10,02,08,51,21.00
2009,10,02,08,52,21.00
2009,10,02,08,53,21.00
2009,10,02,08,54,21.00
2009,10,02,08,55,21.00
2009,10,02,08,56,22.90
2009,10,02,08,57,23.00
2009,10,02,08,58,23.00
2009,10,02,08,59,23.00
2009,10,02,09,00,23.00
2009,10,02,09,01,23.00
2009,10,02,09,02,23.00
2009,10,02,09,03,23.60
2009,10,02,09,04,25.00
2009,10,02,09,05,25.00
2009,10,02,09,06,25.00
2009,10,02,09,07,25.00
2009,10,02,09,08,25.00
2009,10,02,09,09,25.00
2009,10,02,09,10,25.00
2009,10,02,09,11,25.00
2009,10,02,09,12,25.00
2009,10,02,09,13,25.00
2009,10,02,09,14,25.00
2009,10,02,09,15,25.00
2009,10,02,09,16,25.00
2009,10,02,09,17,25.60
2009,10,02,09,18,26.00
2009,10,02,09,19,26.00
2009,10,02,09,20,26.00
2009,10,02,09,21,26.00
2009,10,02,09,22,26.00
2009,10,02,09,23,26.00
2009,10,02,09,24,26.00
2009,10,02,09,25,26.00
2009,10,02,09,26,26.40
2009,10,02,09,27,28.00
2009,10,02,09,28,28.00
2009,10,02,09,29,28.00
2009,10,02,09,30,28.00
2009,10,02,09,31,28.00
2009,10,02,09,32,28.40
2009,10,02,09,33,30.00
2009,10,02,09,34,30.00
2009,10,02,09,35,30.00
2009,10,02,09,36,30.00
2009,10,02,09,37,31.90
2009,10,02,09,38,32.00
2009,10,02,09,39,32.00
2009,10,02,09,40,32.00
2009,10,02,09,41,32.70
2009,10,02,09,42,33.00
2009,10,02,09,43,33.00
2009,10,02,09,44,33.00
2009,10,02,09,45,33.00
2009,10,02,09,46,33.00
2009,10,02,09,47,34.40
2009,10,02,09,48,35.00
2009,10,02,09,49,35.00
2009,10,02,09,50,35.00
2009,10,02,09,51,35.00
2009,10,02,09,52,35.00
2009,10,02,09,53,35.00
2009,10,02,09,54,35.10
2009,10,02,09,55,37.00
2009,10,02,09,56,37.00
2009,10,02,09,57,37.00
2009,10,02,09,58,37.00
2009,10,02,09,59,38.50
2009,10,02,10,00,39.00
2009,10,02,10,01,39.00
2009,10,02,10,02,39.00
2009,10,02,10,03,39.00
2009,10,02,10,04,39.70
2009,10,02,10,05,40.00
2009,10,02,10,06,40.00
2009,10,02,10,07,40.40
2009,10,02,10,08,42.00
2009,10,02,10,09,42.00
2009,10,02,10,10,42.00
2009,10,02,10,11,42.00
2009,10,02,10,12,43.90
2009,10,02,10,13,44.00
2009,10,02,10,14,44.00
2009,10,02,10,15,44.00
2009,10,02,10,16,44.00
2009,10,02,10,17,44.00
2009,10,02,10,18,44.30
2009,10,02,10,19,46.00
2009,10,02,10,20,46.00
2009,10,02,10,21,46.00
2009,10,02,10,22,46.00
2009,10,02,10,23,46.00
2009,10,02,10,24,46.10
2009,10,02,10,25,47.00
2009,10,02,10,26,47.00
2009,10,02,10,27,47.00
2009,10,02,10,28,47.00
2009,10,02,10,29,47.00
2009,10,02,10,30,47.30
2009,10,02,10,31,49.00
2009,10,02,10,32,49.00
2009,10,02,10,33,49.00
2009,10,02,10,34,49.00
2009,10,02,10,35,49.00
2009,10,02,10,36,49.00
2009,10,02,10,37,49.00
2009,10,02,10,38,49.00
2009,10,02,10,39,49.00
2009,10,02,10,40,49.00
2009,10,02,10,41,50.80
2009,10,02,10,42,51.00
2009,10,02,10,43,51.00
2009,10,02,10,44,51.00
2009,10,02,10,45,52.30
2009,10,02,10,46,53.00
2009,10,02,10,47,53.90
2009,10,02,10,48,55.20
2009,10,02,10,49,64.20
2009,10,02,10,50,70.90
2009,10,02,10,51,63.50
2009,10,02,10,52,60.00
2009,10,02,10,53,65.20
2009,10,02,10,54,69.80
2009,10,02,10,55,67.60
2009,10,02,10,56,67.20
2009,10,02,10,57,77.40
2009,10,02,10,58,81.00
2009,10,02,10,59,81.50
2009,10,02,11,00,115.90
2009,10,02,11,01,134.60
2009,10,02,11,02,134.40
2009,10,02,11,03,136.10
2009,10,02,11,04,108.50
2009,10,02,11,05,98.20
2009,10,02,11,06,102.10
2009,10,02,11,07,110.20
2009,10,02,11,08,119.40
2009,10,02,11,09,129.30
2009,10,02,11,10,136.50
2009,10,02,11,11,154.40
2009,10,02,11,12,162.90
2009,10,02,11,13,160.80
2009,10,02,11,14,149.60
2009,10,02,11,15,146.00
2009,10,02,11,16,160.40
2009,10,02,11,17,162.00
2009,10,02,11,18,163.80
2009,10,02,11,19,172.70
2009,10,02,11,20,186.80
2009,10,02,11,21,192.80
2009,10,02,11,22,191.80
2009,10,02,11,23,182.60
2009,10,02,11,24,168.30
2009,10,02,11,25,175.50
2009,10,02,11,26,186.80
2009,10,02,11,27,184.20
2009,10,02,11,28,165.90
2009,10,02,11,29,156.00
2009,10,02,11,30,158.60
2009,10,02,11,31,163.00
2009,10,02,11,32,168.20
2009,10,02,11,33,171.00
2009,10,02,11,34,171.10
2009,10,02,11,35,184.80
2009,10,02,11,36,201.60
2009,10,02,11,37,166.10
2009,10,02,11,38,191.50
2009,10,02,11,39,170.80
2009,10,02,11,40,216.30
2009,10,02,11,41,151.00
2009,10,02,11,42,163.80
2009,10,02,11,43,166.80
2009,10,02,11,44,155.00
2009,10,02,11,45,178.80
2009,10,02,11,46,229.40
2009,10,02,11,47,214.50
2009,10,02,11,48,223.50
2009,10,02,11,49,190.80
2009,10,02,11,50,172.00
2009,10,02,11,51,183.40
2009,10,02,11,52,160.60
2009,10,02,11,53,195.80
2009,10,02,11,54,208.40
2009,10,02,11,55,201.10
2009,10,02,11,56,232.90
2009,10,02,11,57,219.90
2009,10,02,11,58,272.00
2009,10,02,11,59,278.00
2009,10,02,12,00,312.70
2009,10,02,12,01,338.00
2009,10,02,12,02,338.00
2009,10,02,12,03,332.30
2009,10,02,12,04,418.80
2009,10,02,12,05,766.70
2009,10,02,12,06,766.60
2009,10,02,12,07,766.80
2009,10,02,12,08,696.80
2009,10,02,12,09,728.60
2009,10,02,12,10,740.20
2009,10,02,12,11,707.00
2009,10,02,12,12,460.00
2009,10,02,12,13,187.10
2009,10,02,12,14,173.60
2009,10,02,12,15,155.10
2009,10,02,12,16,144.80
2009,10,02,12,17,139.40
2009,10,02,12,18,135.40
2009,10,02,12,19,131.40
2009,10,02,12,20,127.60
2009,10,02,12,21,122.80
2009,10,02,12,22,120.80
2009,10,02,12,23,120.00
2009,10,02,12,24,118.80
2009,10,02,12,25,119.40
2009,10,02,12,26,120.80
2009,10,02,12,27,126.10
2009,10,02,12,28,133.30
2009,10,02,12,29,138.60
2009,10,02,12,30,141.00
2009,10,02,12,31,139.60
2009,10,02,12,32,137.30
2009,10,02,12,33,132.00
2009,10,02,12,34,128.40
2009,10,02,12,35,118.10
2009,10,02,12,36,116.00
2009,10,02,12,37,114.50
2009,10,02,12,38,114.00
2009,10,02,12,39,113.00
2009,10,02,12,40,112.30
2009,10,02,12,41,110.00
2009,10,02,12,42,109.00
2009,10,02,12,43,107.50
2009,10,02,12,44,105.20
2009,10,02,12,45,105.40
2009,10,02,12,46,107.00
2009,10,02,12,47,107.00
2009,10,02,12,48,105.10
2009,10,02,12,49,101.00
2009,10,02,12,50,91.20
2009,10,02,12,51,84.60
2009,10,02,12,52,75.80
2009,10,02,12,53,67.50
2009,10,02,12,54,65.00
2009,10,02,12,55,66.70
2009,10,02,12,56,62.20
2009,10,02,12,57,62.00
2009,10,02,12,58,62.00
2009,10,02,12,59,62.50
2009,10,02,13,00,67.10
2009,10,02,13,01,74.60
2009,10,02,13,02,85.00
2009,10,02,13,03,99.50
2009,10,02,13,04,114.90
2009,10,02,13,05,128.90
2009,10,02,13,06,189.60
2009,10,02,13,07,231.30
2009,10,02,13,08,203.50
2009,10,02,13,09,271.00
2009,10,02,13,10,295.40
2009,10,02,13,11,305.50
2009,10,02,13,12,296.10
2009,10,02,13,13,294.00
2009,10,02,13,14,282.80
2009,10,02,13,15,223.00
2009,10,02,13,16,322.90
2009,10,02,13,17,445.00
2009,10,02,13,18,380.60
2009,10,02,13,19,356.40
2009,10,02,13,20,310.60
2009,10,02,13,21,275.10
2009,10,02,13,22,310.40
2009,10,02,13,23,292.00
2009,10,02,13,24,284.80
2009,10,02,13,25,277.10
2009,10,02,13,26,295.20
2009,10,02,13,27,314.50
2009,10,02,13,28,311.00
2009,10,02,13,29,311.00
2009,10,02,13,30,287.00
2009,10,02,13,31,289.20
2009,10,02,13,32,199.60
2009,10,02,13,33,202.70
2009,10,02,13,34,198.20
2009,10,02,13,35,181.90
2009,10,02,13,36,170.40
2009,10,02,13,37,169.20
2009,10,02,13,38,174.80
2009,10,02,13,39,176.60
2009,10,02,13,40,167.00
2009,10,02,13,41,170.50
2009,10,02,13,42,172.00
2009,10,02,13,43,155.10
2009,10,02,13,44,146.50
2009,10,02,13,45,142.00
2009,10,02,13,46,142.00
2009,10,02,13,47,142.00
2009,10,02,13,48,142.00
2009,10,02,13,49,148.90
2009,10,02,13,50,159.30
2009,10,02,13,51,170.10
2009,10,02,13,52,178.20
2009,10,02,13,53,179.50
2009,10,02,13,54,171.80
2009,10,02,13,55,161.20
2009,10,02,13,56,148.90
2009,10,02,13,57,142.60
2009,10,02,13,58,143.90
2009,10,02,13,59,153.50
2009,10,02,14,00,216.30
2009,10,02,14,01,309.10
2009,10,02,14,02,768.00
2009,10,02,14,03,768.00
2009,10,02,14,04,794.40
2009,10,02,14,05,812.00
2009,10,02,14,06,782.70
2009,10,02,14,07,223.60
2009,10,02,14,08,216.20
2009,10,02,14,09,211.00
2009,10,02,14,10,222.00
2009,10,02,14,11,251.10
2009,10,02,14,12,257.00
2009,10,02,14,13,257.00
2009,10,02,14,14,257.00
2009,10,02,14,15,257.00
2009,10,02,14,16,614.50
2009,10,02,14,17,807.00
2009,10,02,14,18,637.40
2009,10,02,14,19,547.00
2009,10,02,14,20,326.40
2009,10,02,14,21,360.00
2009,10,02,14,22,360.00
2009,10,02,14,23,360.00
2009,10,02,14,24,787.50
2009,10,02,14,25,810.00
2009,10,02,14,26,810.00
2009,10,02,14,27,810.00
2009,10,02,14,28,810.00
2009,10,02,14,29,810.00
2009,10,02,14,30,793.40
2009,10,02,14,31,687.00
2009,10,02,14,32,645.00
2009,10,02,14,33,458.50
2009,10,02,14,34,241.60
2009,10,02,14,35,194.30
2009,10,02,14,36,157.40
2009,10,02,14,37,164.10
2009,10,02,14,38,157.70
2009,10,02,14,39,153.00
2009,10,02,14,40,153.00
2009,10,02,14,41,120.60
2009,10,02,14,42,142.80
2009,10,02,14,43,171.10
2009,10,02,14,44,128.40
2009,10,02,14,45,130.00
2009,10,02,14,46,130.00
2009,10,02,14,47,127.10
2009,10,02,14,48,128.20
2009,10,02,14,49,135.40
2009,10,02,14,50,117.00
2009,10,02,14,51,105.80
2009,10,02,14,52,95.20
2009,10,02,14,53,92.30
2009,10,02,14,54,86.50
2009,10,02,14,55,89.10
2009,10,02,14,56,93.00
2009,10,02,14,57,98.40
2009,10,02,14,58,110.40
2009,10,02,14,59,111.10
2009,10,02,15,00,112.80
2009,10,02,15,01,110.80
2009,10,02,15,02,96.30
2009,10,02,15,03,91.70
2009,10,02,15,04,88.50
2009,10,02,15,05,81.20
2009,10,02,15,06,80.10
2009,10,02,15,07,83.00
2009,10,02,15,08,91.20
2009,10,02,15,09,102.20
2009,10,02,15,10,121.80
2009,10,02,15,11,125.00
2009,10,02,15,12,125.00
2009,10,02,15,13,125.00
2009,10,02,15,14,125.00
2009,10,02,15,15,123.60
2009,10,02,15,16,124.70
2009,10,02,15,17,125.80
2009,10,02,15,18,131.20
2009,10,02,15,19,137.60
2009,10,02,15,20,172.60
2009,10,02,15,21,263.00
2009,10,02,15,22,277.50
2009,10,02,15,23,77.00
2009,10,02,15,24,68.40
2009,10,02,15,25,65.20
2009,10,02,15,26,60.00
2009,10,02,15,27,52.50
2009,10,02,15,28,49.10
2009,10,02,15,29,47.00
2009,10,02,15,30,47.70
2009,10,02,15,31,49.00
2009,10,02,15,32,50.30
2009,10,02,15,33,52.60
2009,10,02,15,34,77.60
2009,10,02,15,35,79.00
2009,10,02,15,36,220.10
2009,10,02,15,37,482.00
2009,10,02,15,38,315.00
2009,10,02,15,39,225.00
2009,10,02,15,40,103.70
2009,10,02,15,41,97.00
2009,10,02,15,42,84.70
2009,10,02,15,43,77.30
2009,10,02,15,44,71.90
2009,10,02,15,45,66.00
2009,10,02,15,46,65.30
2009,10,02,15,47,67.00
2009,10,02,15,48,67.70
2009,10,02,15,49,69.60
2009,10,02,15,50,72.80
2009,10,02,15,51,74.00
2009,10,02,15,52,84.30
2009,10,02,15,53,86.60
2009,10,02,15,54,88.00
2009,10,02,15,55,86.80
2009,10,02,15,56,83.90
2009,10,02,15,57,85.80
2009,10,02,15,58,91.90
2009,10,02,15,59,98.30
2009,10,02,16,00,106.10
2009,10,02,16,01,129.00
2009,10,02,16,02,161.60
2009,10,02,16,03,169.00
2009,10,02,16,04,169.00
2009,10,02,16,05,274.80
2009,10,02,16,06,504.00
2009,10,02,16,07,452.50
2009,10,02,16,08,439.80
2009,10,02,16,09,448.00
2009,10,02,16,10,447.00
2009,10,02,16,11,442.40
2009,10,02,16,12,440.00
2009,10,02,16,13,439.00
2009,10,02,16,14,439.00
2009,10,02,16,15,433.50
2009,10,02,16,16,392.00
2009,10,02,16,17,320.60
2009,10,02,16,18,210.00
2009,10,02,16,19,281.40
2009,10,02,16,20,308.00
2009,10,02,16,21,301.80
2009,10,02,16,22,246.00
2009,10,02,16,23,279.20
2009,10,02,16,24,304.00
2009,10,02,16,25,221.90
2009,10,02,16,26,139.00
2009,10,02,16,27,128.90
2009,10,02,16,28,153.00
2009,10,02,16,29,175.60
2009,10,02,16,30,162.20
2009,10,02,16,31,135.40
2009,10,02,16,32,128.30
2009,10,02,16,33,132.20
2009,10,02,16,34,134.00
2009,10,02,16,35,136.10
2009,10,02,16,36,139.00
2009,10,02,16,37,184.50
2009,10,02,16,38,253.40
2009,10,02,16,39,347.40
2009,10,02,16,40,354.50
2009,10,02,16,41,344.80
2009,10,02,16,42,337.40
2009,10,02,16,43,309.00
2009,10,02,16,44,162.80
2009,10,02,16,45,169.60
2009,10,02,16,46,168.70
2009,10,02,16,47,126.10
2009,10,02,16,48,125.00
2009,10,02,16,49,123.50
2009,10,02,16,50,118.60
2009,10,02,16,51,122.30
2009,10,02,16,52,126.30
2009,10,02,16,53,125.00
2009,10,02,16,54,121.80
2009,10,02,16,55,117.00
2009,10,02,16,56,110.90
2009,10,02,16,57,103.80
2009,10,02,16,58,98.20
2009,10,02,16,59,94.00
2009,10,02,17,00,98.80
2009,10,02,17,01,98.80
2009,10,02,17,02,107.90
2009,10,02,17,03,104.00
2009,10,02,17,04,104.00
2009,10,02,17,05,202.40
2009,10,02,17,06,283.00
2009,10,02,17,07,222.20
2009,10,02,17,08,152.90
2009,10,02,17,09,156.50
2009,10,02,17,10,125.60
2009,10,02,17,11,80.30
2009,10,02,17,12,71.20
2009,10,02,17,13,62.80
2009,10,02,17,14,55.20
2009,10,02,17,15,49.20
2009,10,02,17,16,42.20
2009,10,02,17,17,39.50
2009,10,02,17,18,39.70
2009,10,02,17,19,40.20
2009,10,02,17,20,44.30
2009,10,02,17,21,46.00
2009,10,02,17,22,46.50
2009,10,02,17,23,48.20
2009,10,02,17,24,50.50
2009,10,02,17,25,52.80
2009,10,02,17,26,54.30